Track STARLINK-1862 now! 10-day predictions STARLINK-1862 is classified as:
1 47149U 20088AD 21025.25001157 -.01059256 00000-0 -37894-1 0 9996 2 47149 53.0543 54.6754 0001264 62.4233 233.3854 15.31098764 10318